Regional Weather Roundup
Issued by NWS

Home | Current Version | Previous Version | Text Only | Print | Product List | Glossary On
Versions: 1 2 3 4 5 6 7 8 9 10 11 12 13 14 15 16 17 18 19 20 21 22 23 24 25 26 27 28 29 30 31 32 33 34 35 36 37 38 39 40 41 42 43 44 45 46 47 48 49 50
000
ASUS45 KPSR 051510
RWRAZ

ARIZONA HOURLY REGIONAL WEATHER ROUNDUP
NATIONAL WEATHER SERVICE PHOENIX AZ
800 AM MST SAT SEP 05 2015

NOTE: FAIR INDICATES FEW OR NO CLOUDS BELOW 12,000 FEET WITH NO
SIGNIFICANT WEATHER AND/OR OBSTRUCTIONS TO VISIBILITY.

AZZ001>003-036-051600-
NORTHWEST ARIZONA

CITY           SKY/WX    TMP DP  RH WIND       PRES   REMARKS
BULLHEAD CITY  SUNNY     82  57  42 SW7       29.84R
KINGMAN        SUNNY     75  47  36 CALM      29.99R
$$

AZZ004>008-015-016-018-051600-
NORTH CENTRAL ARIZONA

CITY           SKY/WX    TMP DP  RH WIND       PRES   REMARKS
GRAND CANYON   MOSUNNY   59  52  77 S6        30.20R
WILLIAMS       SUNNY     63  54  72 S10       30.25R
PRESCOTT       PTSUNNY   66  58  75 SE10      30.13R
FLAGSTAFF      CLOUDY    57  56  96 SW8       30.24R
PAYSON         PTSUNNY   64  57  77 CALM      30.17R
PAGE           SUNNY     73  53  49 S5        30.04R
$$

AZZ009>014-017-051600-
NORTHEAST ARIZONA

CITY           SKY/WX    TMP DP  RH WIND       PRES   REMARKS
WINSLOW        PTSUNNY   67  58  72 SE9       30.14R
SAINT JOHNS    CLOUDY    62  56  80 CALM      30.18R
WINDOW ROCK    CLOUDY    61  54  77 CALM      30.25R
SHOW LOW       CLOUDY    59  50  72 S5        30.24R
$$

AZZ023-051600-
GREATER PHOENIX AREA

CITY           SKY/WX    TMP DP  RH WIND       PRES   REMARKS
PHOENIX        PTSUNNY   82  67  60 E6        29.88R
BUCKEYE        SUNNY     81  66  61 CALM      29.89S
GLENDALE       PTSUNNY   82  66  57 CALM      29.90R
LUKE AFB       MOSUNNY   82  67  59 N1        29.89R
DEER VALLEY    PTSUNNY   81  64  56 CALM      29.91R
SCOTTSDALE     PTSUNNY   81  65  58 CALM      29.92R
MESA-FALCON    PTSUNNY   81  63  54 E7        29.91R
MESA-GATEWAY   PTSUNNY   79  64  61 E5        29.93R
CHANDLER       PTSUNNY   72  68  88 CALM      29.91R
$$

AZZ027-028-051600-
SOUTHWEST MARICOPA COUNTY AND PINAL COUNTY

CITY           SKY/WX    TMP DP  RH WIND       PRES   REMARKS
CASA GRANDE    CLOUDY    79  64  61 SE7       29.92R
GILA BEND      FAIR      82  64  55 SE7       29.87R
$$

AZZ503-504-507>509-051600-
SOUTHEAST ARIZONA

CITY           SKY/WX    TMP DP  RH WIND       PRES   REMARKS
TUCSON         LGT RAIN  72  67  84 E3        30.04R
DAVIS-MONTHAN  CLOUDY    70  69  95 CALM      30.03R
NOGALES        CLOUDY    67  63  87 CALM      30.10R
SIERRA VISTA   CLOUDY    66  63  90 W1        30.15R
DOUGLAS        CLOUDY    67  65  93 W6        30.11R
SAFFORD        LGT RAIN  69  66  90 E5        30.04R
$$

AZZ020-021-025-026-031-051600-
SOUTHWEST ARIZONA

CITY           SKY/WX    TMP DP  RH WIND       PRES   REMARKS
YUMA           SUNNY     85  72  65 SE14      29.82R
$$

CAZ031-033-041-043-047-048-061-051600-
SOUTHERN CALIFORNIA

CITY           SKY/WX    TMP DP  RH WIND       PRES   REMARKS
DOWNTOWN L.A.  MOSUNNY   69  58  67 E3        29.91R
L.A. AIRPORT   PTSUNNY   67  59  75 NE6       29.91R
SAN DIEGO      PTSUNNY   70  56  61 CALM      29.92R
BURBANK        SUNNY     65  56  72 CALM      29.92R
ONTARIO        MOSUNNY   64  57  78 W3        29.93R
RIVERSIDE      PTSUNNY   62  56  80 CALM      29.93R
PALM SPRINGS   SUNNY     75  52  44 CALM      29.85R
EL CENTRO NAS  SUNNY     84  54  35 N6        29.82R
IMPERIAL       SUNNY     83  58  42 N5        29.80R
BLYTHE         SUNNY     83  72  69 S8        29.83R
NEEDLES        SUNNY     86  62  44 SW14      29.85R
$$

NVZ020-UTZ003-051600-
SOUTHERN NEVADA-UTAH

CITY           SKY/WX    TMP DP  RH WIND       PRES   REMARKS
LAS VEGAS      MOSUNNY   76  38  25 S9        29.85R
SALT LAKE CITY MOSUNNY   75  39  27 S23G33    29.89R
$$

NMZ009-TXZ055-051600-
NEW MEXICO-WEST TEXAS

CITY           SKY/WX    TMP DP  RH WIND       PRES   REMARKS
ALBUQUERQUE    PTSUNNY   67  58  72 N6        30.19R
EL PASO        PTSUNNY   79  55  43 N6        30.06R
$$


........................KEY........................
SKY/WX - SKY CONDITION/WEATHER
TMP    - TEMPERATURE IN FAHRENHEIT
DP     - DEW POINT IN FAHRENHEIT
RH     - RELATIVE HUMIDITY IN PERCENT
WIND   - DIRECTION AND SPEED IN MILES PER HOUR (MPH)
VRB    - VARIABLE WIND DIRECTION
PRES   - MEAN SEA LEVEL PRESSURE IN INCHES OF MERCURY
         F - FALLING PRESSURE   R - RISING PRESSURE
         S - STEADY PRESSURE
VSB    - VISIBILITY IN MILES
HX     - HEAT INDEX IN FAHRENHEIT
WCI    - WIND CHILL INDEX IN FAHRENHEIT
TC     - TEMPERATURE IN CELSIUS WHICH IS ALSO KNOWN AS
         TEMPERATURE IN CENTIGRADE
AFB    - AIR FORCE BASE
         LUKE AFB IS LUKE AIR FORCE BASE
         DAVIS-MONTHAN IS DAVIS-MONTHAN AIR FORCE BASE
NAS    - NAVAL AIR STATION
         EL CENTRO NAS IS EL CENTRO NAVAL AIR STATION
N/A    - NOT AVAILABLE



USA.gov is the U.S. government's official web portal to all federal, state and local government web resources and services.